User: anonymous   Login
Location: Unspecified
(0.0000°N, 0.0000°E)
Time: 15:59:38
(UTC+01:00)
Language:

Cosmos 1315 Rocket - Orbit

View from above orbital plane
View from above orbital plane
View from above satellite
View from above satellite

Ground track
Ground track

The orbit data is extracted from the following two-line orbital elements,

1 12904U 81103B   17018.20931528  .00000344  00000-0  22314-4 0  9993
2 12904  81.1776  86.8432 0028382 196.7186 163.3104 15.05169005470269
Epoch (UTC): 18 January 2017 05:01:24
Eccentricity: 0.0028382
inclination: 81.1776°
perigee height: 531 km
apogee height: 570 km
right ascension of ascending node: 86.8432°
argument of perigee: 196.7186°
revolutions per day: 15.05169005
mean anomaly at epoch: 163.3104°
orbit number at epoch: 47026

The dashed part of the orbit path shows where the satellite is in the earth's shadow,  

DLR